Content
SEND FEEDBACK

Daily
Averages
Monthly
Summary
United Kingdom

WORTHING, ENGLAND


Home > Europe > United Kingdom > England
Elevation: 13 feet     Latitude: 50 49N     Longitude: 000 55W

WEATHER
 
SELECT A DAY
Number of Records: 192,938;   Date Range: 7/1/96 - 7/28/14
 
SHARE

PRINT THIS DATA

[ ← Previous Day ]
WEATHER ALMANAC - SEPTEMBER 25, 2013
[ Next Day → ]
[ °C ]   °F
Weather ElementAverageHighLow
Temperature61.5 °F69.8 °F (3:20 pm)50 °F (6:20 am)
Dewpoint56.2 °F59 °F (6:20 pm)50 °F (6:20 am)
Humidity83.7 %100 % (6:20 am)60 % (3:20 pm)
Barometer29.86 in29.89 in (9:50 am)29.83 in (2:20 pm)
Wind Speed2 mph5.8 mph (3:50 pm)
Weather ElementAverage
Visibility3.5 mi
Wind DirectionENE (67.3 °)

Weather ElementTotal
Precipitation---
Heating Degree Days5.1 (Base 65)
Growing Degree Days9.9 (Base 50)
Averaged from 33 records on September 25, 2013
WEATHER CONDITIONS BREAKOUT
WIND DIRECTION BREAKOUT
WEATHER BY HOUR - SEPTEMBER 25, 2013
[ °C ]   °F
Local TimeTemperatureDewpointHumidityBarometerVisibilityWind DirectionWind SpeedGust SpeedPrecipitationEventsConditions
6:20 AM50.0 °F50.0 °F100 %29.86 in4.3 miCalmMist
6:50 AM51.8 °F50.0 °F94 %29.86 in4.3 miCalmMist
7:20 AM50.0 °F50.0 °F100 %29.86 in4.3 miVariable1.2 mphMist
7:50 AM51.8 °F51.8 °F100 %29.86 in3.7 miCalmMist
8:20 AM55.4 °F53.6 °F94 %29.86 in4.3 miVariable1.2 mphMist
8:50 AM57.2 °F55.4 °F94 %29.86 in4.3 miCalmMist
9:20 AM59.0 °F57.2 °F94 %29.86 in4.3 miCalmMist
9:50 AM59.0 °F55.4 °F88 %29.89 in3.7 miVariable2.3 mphHaze
10:20 AM60.8 °F55.4 °F82 %29.89 in3.7 miCalmScattered Clouds
10:50 AM64.4 °F55.4 °F73 %29.86 in5.0 miVariable1.2 mphPartly Cloudy
11:20 AM64.4 °F57.2 °F77 %29.86 in5.0 miNNE (30°)1.2 mphPartly Cloudy
11:50 AM66.2 °F57.2 °F73 %29.86 in5.0 miNNE (30°)3.5 mphPartly Cloudy
12:20 PM66.2 °F55.4 °F68 %29.86 in5.0 miVariable2.3 mphPartly Cloudy
12:50 PM68.0 °F55.4 °F64 %29.86 in5.0 miVariable2.3 mphPartly Cloudy
1:20 PM68.0 °F55.4 °F64 %29.86 in5.0 miNW (310°)2.3 mphPartly Cloudy
1:50 PM68.0 °F55.4 °F64 %29.86 in5.0 miVariable3.5 mphPartly Cloudy
2:20 PM68.0 °F57.2 °F68 %29.83 in5.0 miSSE (160°)4.6 mphPartly Cloudy
2:50 PM68.0 °F57.2 °F68 %29.83 in5.0 miSSW (200°)4.6 mphPartly Cloudy
3:20 PM69.8 °F55.4 °F60 %29.83 in4.3 miSouth (170°)4.6 mphPartly Cloudy
3:50 PM66.2 °F57.2 °F73 %29.83 in3.1 miSouth (190°)5.8 mphHaze
4:20 PM64.4 °F57.2 °F77 %29.83 in3.1 miSSW (200°)5.8 mphHaze
4:50 PM64.4 °F57.2 °F77 %29.83 in3.1 miSouth (190°)5.8 mphHaze
5:20 PM64.4 °F57.2 °F77 %29.86 in3.1 miSSW (200°)5.8 mphHaze
5:50 PM62.6 °F57.2 °F82 %29.86 in3.1 miSSW (200°)3.5 mphRainLight Rain
6:20 PM60.8 °F59.0 °F94 %29.83 in2.5 miSE (130°)1.2 mphRainLight Rain
6:50 PM60.8 °F59.0 °F94 %29.86 in2.5 miCalmRainLight Rain
7:20 PM60.8 °F59.0 °F94 %29.86 in1.9 miVariable1.2 mphRainLight Rain
7:50 PM60.8 °F59.0 °F94 %29.86 in1.4 miCalmRainLight Rain
8:20 PM60.8 °F59.0 °F94 %29.89 in1.2 miSSW (210°)1.2 mphRainLight Rain
8:50 PM59.0 °F57.2 °F94 %29.89 in1.2 miCalmRainLight Rain
9:20 PM59.0 °F57.2 °F94 %29.89 in1.2 miCalmRainLight Rain
9:50 PM59.0 °F59.0 °F100 %29.89 in1.1 miCalmRainLight Rain
10:20 PM60.8 °F59.0 °F94 %29.89 in1.2 miCalmRainLight Rain
Hourly data recorded from EGHI, located miles away from Worthing, England







STORIES FROM OUR PARTNERS